Tracking 30298 objects as of 27-Apr-2025
HD Live streaming from Space Station
objects crossing your sky now

STARLINK-11257

Track STARLINK-11257 now!
10-day predictions


NORAD ID: 61201
Int'l Code: 2024-171B
Perigee: 366.3 km
Apogee: 367.4 km
Inclination: 53.2 °
Period: 91.7 minutes
Semi major axis: 6737 km
RCS: Unknown
Launch date: September 20, 2024
Source: United States (US)
Launch site: AIR FORCE WESTERN TEST RANGE (AFWTR)
Your satellite tracking list
Your tracking list is empty




NASA's NSSDC Master Catalog

Two Line Element Set (TLE):
1 61201U 24171B   25116.91389760  .00000278  00000-0  71449-5 0  9990
2 61201  53.1605 297.9907 0000839 106.9090 253.2020 15.69717460 35558
Source of the keplerian elements: AFSPC